Orbital Elements at Epoch 2459000.5 (2020-May-31.0) TDB
Reference: JPL 14 (heliocentric ecliptic J2000)
Element | Value | Uncertainty (1-sigma) | Units |
e | .1696794397598411 | 6.3506e-08 | |
a | 2.406745504356997 | 1.5195e-08 | au |
q | 1.998370275533185 | 1.5029e-07 | au |
i | 3.609778544860627 | 7.559e-06 | deg |
node | 92.31147148888813 | 8.5286e-05 | deg |
peri | 3.348474721667896 | 8.7315e-05 | deg |
M | 59.84840412311663 | 1.646e-05 | deg |
tp | 2458773.777952867467 (2019-Oct-17.27795287) | 6.1986e-05 | TDB |
period | 1363.778001495383 3.73 | 1.2916e-05 3.536e-08 | d yr |
n | .2639725817583652 | 2.4999e-09 | deg/d |
Q | 2.815120733180808 | 1.7774e-08 | au |
|
| | Orbit Determination Parameters
Additional Information
|